Regional Weather Roundup
Issued by NWS

Home | Current Version | Previous Version | Graphics & Text | Print | Product List | Glossary On
Versions: 1 2 3 4 5 6 7 8 9 10 11 12 13 14 15 16 17 18 19 20 21 22 23 24 25 26 27 28 29 30 31 32 33 34 35 36 37 38 39 40 41 42 43 44 45 46 47 48 49 50
000
ASUS45 KBOU 281610
RWRCO

WEATHER ROUNDUP FOR COLORADO
NATIONAL WEATHER SERVICE DENVER/BOULDER CO
1000 AM MDT TUE JUL 28 2015

NOTE: "FAIR" INDICATES FEW OR NO CLOUDS BELOW 12000 FEET WITH NO
SIGNIFICANT WEATHER AND/OR OBSTRUCTIONS TO VISIBILITY.

COZ001>005-013-030-031-281700-
...NORTHWEST COLORADO...

CITY           SKY/WX    TMP DP  RH WIND       PRES   REMARKS
CRAIG          SUNNY     63  35  35 NE5       30.30F
HAYDEN         SUNNY     59  32  36 N3        30.31S
MEEKER         SUNNY     63  37  38 W3        30.29F
MOUNT WERNER   NOT AVBL
STEAMBOAT SPGS SUNNY     58  36  43 CALM      30.31F
WALDEN         SUNNY     59  32  36 S10G17    30.33F
$$

COZ006>008-011-281700-
...WEST CENTRAL VALLEYS...

CITY           SKY/WX    TMP DP  RH WIND       PRES   REMARKS
GRAND JUNCTION SUNNY     75  36  24 VRB6      30.17F
MONTROSE       SUNNY     71  33  24 N7        30.25S
EAGLE          SUNNY     63  34  34 CALM      30.31F
RIFLE          SUNNY     68  36  30 VRB3      30.24S
DELTA          SUNNY     73  35  25 SE3       30.21F
NUCLA          SUNNY     70  30  23 CALM      30.26S
$$

COZ017>023-064>068-281700-
...SOUTHWEST COLORADO...

CITY           SKY/WX    TMP DP  RH WIND       PRES   REMARKS
DURANGO        PTSUNNY   71  38  29 E5        30.26R
CORTEZ         SUNNY     72  38  29 CALM      30.21S
PAGOSA SPRINGS PTSUNNY   69  33  26 S5        30.34S
TELLURIDE      SUNNY     65  32  28 CALM      30.44S
WOLF CREEK PAS NOT AVBL
$$

COZ009-010-012-014-032>034-037-058>063-281700-
...CENTRAL COLORADO...

CITY           SKY/WX    TMP DP  RH WIND       PRES   REMARKS
ASPEN          SUNNY     64  37  36 N6        30.33S
BUENA VISTA    SUNNY     70  29  22 E6        30.31F
COPPER MTN     SUNNY     55  19  24 W17G28    30.60S
BERTHOUD PASS  FAIR      45  36  70 W23G32    30.60S
COTTONWOOD PAS SUNNY     68  14  12 SW8       30.45S
GUNNISON       SUNNY     61  34  36 N3        30.38F
KREMMLING      SUNNY     59  30  33 CALM      30.34F
LEADVILLE      SUNNY     62  24  23 CALM      30.43F
MONARCH PASS   SUNNY     52  23  32 SW23G32   30.71S
SALIDA         SUNNY     76  31  19 SW5       30.35F
SUNLIGHT       SUNNY     55  32  41 CALM      30.56R
WILKERSON PASS SUNNY     59  28  31 SW7       30.57S
$$

COZ069>075-281700-
...SAN LUIS VALLEY/SANGRE DE CRISTO MOUNTAINS...

CITY           SKY/WX    TMP DP  RH WIND       PRES   REMARKS
ALAMOSA        SUNNY     70  40  33 N3        30.30F
LA VETA PASS   SUNNY     61  37  41 MISG      30.50S
SAGUACHE       SUNNY     70  36  28 CALM      30.34S
$$

COZ035-036-038>040-281700-
...NORTHERN COLORADO FRONT RANGE...

CITY           SKY/WX    TMP DP  RH WIND       PRES   REMARKS
DENVER INTL AP MOSUNNY   70  33  25 SE15      30.15S
DMNS CITY PARK   N/A     72  36  26 E8G18     30.14S
AURORA         MOSUNNY   69  36  28 SE13      30.17F
FRONT RANGE AP MOSUNNY   68  32  26 E12       30.16F
ERIE MUNI ARPT SUNNY     72  33  24 SE15G21   30.12F
BOULDER MUN AP SUNNY     72  37  28 SE10G18   30.12S
CENTENNIAL     MOSUNNY   70  36  28 SE9       30.17F
BROOMFIELD     MOSUNNY   70  37  30 SE14      30.16F
FORT COLLINS   SUNNY     72  39  30 S13       30.14S
LONGMONT         N/A    N/A N/A N/A MISG        N/A
$$

COZ041-046-047-076>085-087-088-281700-
...PIKES PEAK/PALMER DIVIDE AND SOUTHERN FOOTHILLS...

CITY           SKY/WX    TMP DP  RH WIND       PRES   REMARKS
COLO. SPRINGS  MOSUNNY   72  41  32 S16       30.22R
A. F. ACADEMY  SUNNY     72  38  28 S9        30.21F
ELLICOTT       SUNNY    N/A N/A N/A VRB5      30.21R
FALCON         SUNNY     70  37  30 E8        30.27R
FORT CARSON    MOSUNNY   74  43  33 S14       30.19S
LIMON          SUNNY     69  36  29 N17G24    30.17S
MONUMENT HILL  SUNNY     64  37  36 SE10      30.25S
TRINIDAD       SUNNY     76  35  22 NE7       30.21F
$$

COZ042>045-048>051-090-091-281700-
...NORTHEAST COLORADO...

CITY           SKY/WX    TMP DP  RH WIND       PRES   REMARKS
GREELEY ARPT   SUNNY     72  39  30 SW6       30.14R
AKRON            N/A    N/A N/A N/A MISG      30.14R
BURLINGTON     SUNNY     74  41  30 N20G30    30.10R
WRAY           SUNNY     77  41  27 N16G24    30.09R
STERLING       NOT AVBL
HOLYOKE        SUNNY     79  39  24 N16G25    30.09R
FORT MORGAN    SUNNY     74  35  24 N9        30.13S
$$

COZ086-089-092>099-281700-
...SOUTHEAST COLORADO...

CITY           SKY/WX    TMP DP  RH WIND       PRES   REMARKS
PUEBLO         SUNNY     78  39  24 VRB3      30.14S
LA JUNTA       SUNNY     81  35  19 NE9       30.12R
LAMAR          MOSUNNY   81  43  26 NE13      30.05R
SPRINGFIELD      N/A     77  40  26 N24       30.09R
$$


USA.gov is the U.S. government's official web portal to all federal, state and local government web resources and services.